Home > Weather > Konstanz > Past weeks

Flag for Germany Past Weather in Konstanz, Baden-Württemberg, Germany — Yesterday and Last 2 Weeks

Now
77 °F

Partly sunny.


Feels Like: 79 °F
Forecast: 57 / 67 °F
Wind: 7 mph from West

Location: Friedrichshafen Airport

Current Time: Jun 25, 2016 at 2:23:36 PM

Latest Report: Jun 25, 2016 at 1:50 PM


Visibility: N/A

Pressure: 29.92 "Hg

Humidity: 69%

Dew Point: 66 °F

Location of KonstanzLocation

Past Weather in Konstanz — Graph

°F

Konstanz Temperature Yesterday

Maximum temperature yesterday: 88 °F (at 2:50 PM)
Minimum temperature yesterday: 63 °F (at 4:20 AM)
Average temperature yesterday: 76 °F

High & Low Weather Summary for the Past Weeks

 TemperatureHumidityPressure
High91 °F (Jun 23, 6:20 PM)100% (Jun 11, 5:50 AM)30.27 "Hg (Jun 11, 5:50 AM)
Low48 °F (Jun 17, 6:20 AM)36% (Jun 10, 6:50 PM)29.56 "Hg (Jun 16, 6:20 AM)
Average63 °F80%29.95 "Hg
* Reported Jun 10 12:20 PM — Jun 25 12:50 PM, Konstanz, Weather by CustomWeather, © 2016

Note: Actual official high and low records may vary slightly from our data, if they occured in-between our weather recording intervals... More about our weather records

Advertising

Konstanz Weather History for the Previous 24 Hours

Scroll right to see more
 ConditionsComfort  
Time TempWeatherWind HumidityBarometerVisibility
12:50 PM
Sat, Jun 25
75 °FSunny.3 mph69%29.95 "Hg10 mi
12:20 PM73 °FSunny.3 mph69%29.95 "Hg10 mi
11:50 AM75 °FSunny.5 mph65%29.95 "Hg10 mi
11:20 AM73 °FSunny.5 mph69%29.98 "Hg10 mi
10:50 AM73 °FPassing clouds.6 mph69%29.98 "HgN/A
10:20 AM72 °FPartly sunny.2 mph73%29.98 "HgN/A
9:50 AM72 °FPartly sunny.6 mph69%29.98 "HgN/A
9:20 AM72 °FBroken clouds.5 mph69%29.98 "HgN/A
8:50 AM72 °FPassing clouds.5 mph73%29.98 "HgN/A
8:20 AM70 °FSunny.5 mph78%29.98 "Hg10 mi
7:50 AM68 °FPassing clouds.7 mph83%29.98 "HgN/A
7:20 AM66 °FPartly sunny.5 mph88%29.98 "HgN/A
6:50 AM64 °FScattered clouds.5 mph94%29.98 "HgN/A
6:20 AM63 °FClear.3 mph94%30.01 "Hg10 mi
5:50 AM61 °FClear.2 mph94%30.01 "Hg10 mi
5:20 AM61 °FCool.No wind100%29.98 "HgN/A
4:50 AM63 °FMild.2 mph94%29.98 "Hg4 mi
4:20 AM63 °FClear.1 mph94%29.98 "Hg10 mi
3:50 AM63 °FMild.2 mph94%29.98 "HgN/A
3:20 AM63 °FMild.2 mph94%29.98 "HgN/A
2:50 AM63 °FMild.3 mph94%29.98 "HgN/A
2:20 AM64 °FClear.1 mph88%30.01 "Hg10 mi
1:50 AM66 °FClear.7 mph83%30.01 "Hg10 mi
1:20 AM66 °FClear.8 mph83%30.01 "Hg10 mi
12:50 AM68 °FPassing clouds.8 mph78%30.04 "HgN/A
12:20 AM70 °FPassing clouds.7 mph73%30.04 "HgN/A
11:50 PM
Fri, Jun 24
70 °FPassing clouds.5 mph73%30.04 "HgN/A
11:20 PM72 °FMostly cloudy.5 mph69%30.01 "HgN/A
10:50 PM72 °FPassing clouds.5 mph73%30.01 "HgN/A
10:20 PM75 °FThundershowers. Partly sunny.5 mph61%30.04 "HgN/A
9:50 PM73 °FMostly cloudy.6 mph65%29.98 "HgN/A
9:20 PM75 °FThundershowers. Mostly cloudy.8 mph65%29.98 "HgN/A
8:50 PM77 °FThunderstorms. Broken clouds.10 mph54%29.98 "HgN/A
8:20 PM81 °FBroken clouds.10 mph54%29.98 "HgN/A
7:50 PM82 °FPartly sunny.No wind62%29.95 "HgN/A
7:20 PM82 °FPassing clouds.5 mph48%29.98 "HgN/A
6:50 PM88 °FPassing clouds.5 mph46%29.98 "HgN/A
6:20 PM88 °FSunny.7 mph46%29.98 "Hg10 mi
5:50 PM88 °FSunny.8 mph46%29.98 "Hg10 mi
5:20 PM86 °FPassing clouds.7 mph49%29.98 "HgN/A
4:50 PM88 °FSunny.8 mph49%30.01 "Hg10 mi
4:20 PM88 °FPassing clouds.7 mph49%30.01 "HgN/A
3:50 PM88 °FSunny.3 mph49%30.01 "Hg10 mi
3:20 PM88 °FSunny.3 mph46%30.04 "Hg10 mi
2:50 PM88 °FSunny.3 mph46%30.04 "Hg10 mi
2:20 PM86 °FPassing clouds.6 mph49%30.07 "HgN/A
Weather by CustomWeather, © 2016

See weather overviewHow to use our weather pages